www.pogodaiklimat.ru

Погода и климат >> Архив погоды >> Албания >> Тирана


ПОГОДА в Тиране

  • Прогноз погоды в Тиране
  • Монитор погоды в Тиране

АРХИВ ПОГОДЫ в Тиране

Время (UTC), дата Ветер
(напр.,м/с)
 
Видим.   Явления Облачность Т
(С)
Тd
(С)
f
(%)
Тe
(С)
Тes
(С)
Комфортность P
(гПа)
Po
(гПа)
Тmin
(С)
Tmax
(С)
R
(мм)
R24
(мм)
S
(см)
13 18.06 З 4 40 км н/о +30.5 +19.8 53 +37 +37 очень
душно
1012.7 1008.4
14 18.06 З 3 45 км н/о +29.7 +18.0 49 +34 +34 очень
душно
1012.6 1008.3
15 18.06 З 2 40 км н/о +27.9 +18.4 56 +33 +33 очень
душно
1012.6 1008.3
16 18.06 СЗ 3 35 км н/о +27.2 +19.5 63 +33 +33 очень
душно
1012.7 1008.3
17 18.06 С 4 40 км н/о +27.2 +19.7 64 +33 +33 очень
душно
1012.9 1008.5
18 18.06 СЗ 2 30 км н/о +25.8 +20.8 74 +32 +32 очень
душно
1013.3 1009.0 +24.7 +32.5
19 18.06 З 1 5000 м н/о +24.8 +21.2 80 +31 +31 очень
душно
1013.8 1009.4
20 18.06 штиль 0 24 км н/о +24.1 +21.5 85 +31 +31 очень
душно
1014.2 1009.8
21 18.06 ЮВ 2 16 км н/о +23.0 +20.8 87 +30 +30 очень
душно
1014.1 1009.7
22 18.06 Ю 1 15 км н/о +22.2 +20.0 87 +28 +28 душно 1014.0 1009.6
23 18.06 ЮВ 1 20 км н/о +22.4 +20.2 87 +29 +29 очень
душно
1013.8 1009.4
00 19.06 З 2 13 км н/о +20.8 +19.2 91 +26 +26 душно 1013.6 1009.2
01 19.06 Ю 2 13 км н/о +20.6 +19.1 91 +25 +25 комфорт 1013.1 1008.7
02 19.06 В 1 11 км н/о +20.1 +18.8 92 +25 +25 комфорт 1013.1 1008.7
03 19.06 ЮЗ 1 10 км н/о +19.9 +18.5 92 +24 +24 комфорт 1013.3 1008.9
04 19.06 ЮВ 1 13 км н/о +20.4 +19.0 92 +25 +25 комфорт 1013.3 1008.9
05 19.06 Ю 1 12 км н/о +22.7 +19.8 84 +29 +29 очень
душно
1013.4 1009.0
06 19.06 Ю 2 25 км н/о +25.5 +19.8 71 +31 +31 очень
душно
1013.5 1009.1 +19.7 +25.9
07 19.06 нст 1 30 км н/о +26.0 +18.5 63 +31 +31 очень
душно
1013.3 1009.0
08 19.06 нст 1 35 км н/о +28.3 +18.2 54 +33 +33 очень
душно
1013.4 1009.1
09 19.06 нст 1 35 км н/о +29.7 +20.0 56 +36 +36 очень
душно
1013.2 1008.9
10 19.06 нст 1 40 км н/о +31.3 +22.0 58 +40 +40 очень
душно
1012.7 1008.5
11 19.06 СЗ 4 40 км н/о +30.7 +22.1 60 +39 +39 очень
душно
1012.6 1008.3
12 19.06 З 3 45 км н/о +30.4 +19.3 52 +36 +36 очень
душно
1012.4 1008.1
13 19.06 З 3 40 км н/о +30.4 +19.1 51 +36 +36 очень
душно
1012.4 1008.1
14 19.06 З 3 45 км н/о +29.9 +18.6 51 +35 +35 очень
душно
1012.0 1007.8
15 19.06 СЗ 3 45 км н/о +28.3 +18.8 56 +33 +33 очень
душно
1011.9 1007.5
16 19.06 СЗ 3 40 км н/о +27.8 +18.8 58 +33 +33 очень
душно
1011.8 1007.5
17 19.06 С 3 40 км н/о +26.9 +18.9 62 +32 +32 очень
душно
1011.8 1007.5
18 19.06 СЗ 2 35 км н/о +24.5 +19.7 75 +30 +30 очень
душно
1012.1 1007.8 +24.5 +31.8
19 19.06 С 2 18 км н/о +23.3 +19.9 81 +30 +30 очень
душно
1012.7 1008.3
20 19.06 ЮВ 1 17 км н/о +22.9 +20.4 86 +30 +30 очень
душно
1013.0 1008.6
21 19.06 ЮВ 2 16 км н/о +22.7 +19.7 83 +29 +29 очень
душно
1012.8 1008.4
22 19.06 штиль 0 11 км н/о +20.6 +19.1 91 +24 +24 комфорт 1012.8 1008.3
00 20.06 ЮЗ 1 18 км н/о +19.9 +18.2 90 +24 +24 комфорт 1012.8 1008.3
01 20.06 В 1 15 км н/о +19.5 +18.2 92 +23 +23 комфорт 1012.6 1008.2
02 20.06 ЮВ 2 21 км н/о +19.6 +17.8 89 +23 +23 комфорт 1012.7 1008.2
03 20.06 Ю 1 20 км н/о +19.4 +17.6 89 +23 +23 комфорт 1012.9 1008.4
04 20.06 штиль 0 17 км н/о +19.8 +18.1 90 +22 +22 комфорт 1013.2 1008.7
05 20.06 Ю 2 18 км н/о +21.8 +19.2 85 +27 +27 душно 1013.4 1008.9
06 20.06 нст 1 26 км н/о +24.5 +18.8 71 +29 +29 душно 1013.4 1009.0 +18.9 +25.5
07 20.06 З 1 30 км н/о +25.7 +18.9 66 +31 +31 очень
душно
1013.3 1008.9
08 20.06 нст 1 35 км н/о +27.2 +20.1 65 +33 +33 очень
душно
1013.2 1008.9
09 20.06 С 2 35 км н/о +28.7 +20.2 60 +35 +35 очень
душно
1013.2 1008.9
10 20.06 СЗ 3 40 км н/о +29.8 +16.6 45 +33 +33 душно 1013.0 1008.7
11 20.06 нст 3 40 км н/о +30.8 +20.1 53 +37 +37 очень
душно
1012.7 1008.4
12 20.06 З 4 45 км н/о +30.2 +18.1 48 +35 +35 очень
душно
1012.4 1008.1
13 20.06 СЗ 4 40 км н/о +29.6 +17.7 49 +34 +34 очень
душно
1012.2 1007.9
14 20.06 З 4 45 км н/о +29.3 +19.5 56 +35 +35 очень
душно
1012.2 1007.9
15 20.06 СЗ 3 45 км н/о +28.9 +21.0 62 +36 +36 очень
душно
1012.2 1007.9
16 20.06 45 км н/о +27.4 +20.0 64 1012.4 1008.1
17 20.06 С 3 35 км н/о +26.5 +19.2 64 +32 +32 очень
душно
1012.8 1008.4
18 20.06 СЗ 1 35 км н/о +25.9 +20.8 73 +32 +32 очень
душно
1012.5 1008.1 +24.2 +32.1
19 20.06 штиль 0 11 км н/о +24.6 +21.0 80 +31 +31 очень
душно
1013.2 1008.8
20 20.06 штиль 0 17 км н/о +22.9 +20.6 87 +30 +30 очень
душно
1013.3 1008.9
21 20.06 Ю 1 13 км н/о +22.0 +20.5 91 +28 +28 душно 1013.7 1009.3
22 20.06 В 2 10 км н/о +21.2 +19.7 91 +26 +26 душно 1013.9 1009.5
23 20.06 З 1 12 км н/о +20.7 +19.3 92 +26 +26 душно 1014.1 1009.7
00 21.06 Ю 1 17 км н/о +20.5 +18.7 89 +25 +25 комфорт 1014.3 1009.8
01 21.06 ЮВ 1 17 км н/о +20.2 +18.8 92 +25 +25 комфорт 1014.2 1009.8
02 21.06 ЮВ 1 21 км н/о +20.1 +18.4 90 +24 +24 комфорт 1014.3 1009.9
03 21.06 ЮВ 1 19 км н/о +19.8 +17.9 89 +24 +24 комфорт 1014.6 1010.1
04 21.06 Ю 1 18 км н/о +20.4 +18.6 89 +25 +25 комфорт 1015.0 1010.5
05 21.06 Ю 1 23 км н/о +22.4 +19.3 83 +28 +28 душно 1015.3 1010.9
06 21.06 ЮВ 2 30 км н/о +25.2 +18.9 68 +30 +30 душно 1015.4 1011.1 +19.2 +26.0
07 21.06 нст 1 30 км н/о +26.1 +19.1 65 +31 +31 очень
душно
1015.6 1011.2
08 21.06 нст 1 40 км н/о +27.7 +18.8 58 +33 +33 очень
душно
1015.2 1010.9
09 21.06 С 2 40 км н/о +29.8 +17.8 49 +34 +34 очень
душно
1015.3 1011.0
10 21.06 С 2 45 км н/о +32.4 +20.4 49 +39 +39 очень
душно
1015.0 1010.7
11 21.06 СЗ 3 40 км н/о +31.8 +21.3 54 +40 +40 очень
душно
1014.8 1010.5
12 21.06 СЗ 3 45 км н/о +32.1 +21.6 54 +40 +40 очень
душно
1014.4 1010.1
13 21.06 СЗ 4 45 км н/о +30.7 +20.3 54 +37 +37 очень
душно
1014.0 1009.7
14 21.06 СЗ 3 45 км н/о +30.5 +19.6 52 +36 +36 очень
душно
1013.8 1009.5
15 21.06 С 5 45 км н/о +29.1 +19.5 56 +35 +35 очень
душно
1014.0 1009.7
16 21.06 СЗ 4 45 км н/о +28.3 +18.6 56 +33 +33 очень
душно
1014.0 1009.6
17 21.06 С 3 40 км н/о +27.3 +20.3 66 +34 +34 очень
душно
1014.4 1010.0
18 21.06 С 2 30 км н/о +24.9 +20.9 78 +31 +31 очень
душно
1014.6 1010.2 +24.3 +33.1
19 21.06 С 1 11 км н/о +24.9 +22.3 85 +32 +32 очень
душно
1015.2 1010.8
20 21.06 СЗ 1 11 км н/о +24.3 +22.3 89 +32 +32 очень
душно
1015.5 1011.1
21 21.06 Ю 1 12 км н/о +23.0 +21.1 89 +31 +31 очень
душно
1015.6 1011.2
22 21.06 ЮВ 2 12 км н/о +22.3 +20.5 90 +29 +29 очень
душно
1015.2 1010.8
23 21.06 Ю 1 11 км н/о +21.8 +20.7 93 +28 +28 душно 1014.7 1010.3
00 22.06 СЗ 1 6000 м н/о +20.4 +19.0 92 +25 +25 комфорт 1015.2 1010.7
01 22.06 штиль 0 11 км н/о +20.9 +19.6 92 +25 +25 комфорт 1015.7 1011.3
02 22.06 Ю 2 7000 м н/о +20.7 +19.5 93 +26 +26 душно 1015.3 1010.9
03 22.06 ЮВ 2 9000 м н/о +20.9 +19.6 92 +26 +26 душно 1015.3 1010.9
04 22.06 В 1 7000 м н/о +21.0 +19.5 91 +27 +27 душно 1015.8 1011.4
05 22.06 Ю 2 27 км н/о +23.3 +19.3 78 +30 +30 очень
душно
1015.7 1011.3
06 22.06 ЮВ 2 30 км н/о +25.4 +18.8 67 +30 +30 душно 1016.0 1011.7 +19.8 +25.6
07 22.06 ЮВ 1 35 км н/о +26.6 +18.7 62 +32 +32 очень
душно
1015.9 1011.5
08 22.06 В 1 35 км н/о +30.1 +19.4 53 +36 +36 очень
душно
1016.1 1011.8
09 22.06 нст 1 35 км н/о +32.2 +19.2 46 +38 +38 очень
душно
1016.3 1012.1
10 22.06 нст 1 45 км н/о +33.6 +18.8 42 +39 +39 очень
душно
1016.1 1011.8
11 22.06 нст 1 50 км н/о +33.2 +15.1 34 +35 +35 душно 1016.3 1012.0
12 22.06 З 4 40 км н/о +33.1 +23.1 56 +44 +44 опасность
перегрева
1015.3 1011.0
13 22.06 ЮЗ 4 40 км н/о +33.0 +23.3 57 +44 +44 опасность
перегрева
1014.9 1010.7
14 22.06 СЗ 2 40 км н/о +33.0 +22.6 54 +42 +42 опасность
перегрева
1014.3 1010.0
15 22.06 СВ 1 30 км н/о +32.9 +23.4 57 +43 +43 опасность
перегрева
1013.3 1009.1
16 22.06 СЗ 3 30 км н/о +32.6 +25.1 65 +47 +47 опасность
перегрева
1013.6 1009.3
17 22.06 СЗ 4 27 км н/о +27.8 +22.8 74 +37 +37 очень
душно
1013.7 1009.4
18 22.06 С 1 27 км н/о +27.1 +22.3 75 +35 +35 очень
душно
1013.9 1009.5 +25.1 +35.5
19 22.06 СВ 1 16 км н/о +26.9 +22.7 78 +36 +36 очень
душно
1014.1 1009.7
20 22.06 штиль 0 15 км н/о +24.1 +21.7 86 +31 +31 очень
душно
1014.6 1010.2
21 22.06 ЮВ 2 11 км н/о +24.0 +21.9 88 +31 +31 очень
душно
1014.4 1010.0
22 22.06 ЮВ 2 15 км н/о +23.6 +21.4 87 +30 +30 очень
душно
1014.3 1009.9
23 22.06 Ю 1 16 км н/о +22.8 +20.7 88 +30 +30 очень
душно
1014.0 1009.6
00 23.06 Ю 2 21 км н/о +22.8 +20.3 86 +30 +30 очень
душно
1014.0 1009.6
01 23.06 Ю 1 23 км н/о +21.2 +18.7 86 +26 +26 душно 1014.0 1009.6
02 23.06 Ю 2 19 км н/о +21.3 +19.1 87 +26 +26 душно 1013.9 1009.5
03 23.06 Ю 2 23 км н/о +21.1 +18.7 86 +25 +25 комфорт 1013.7 1009.3
04 23.06 ЮВ 2 30 км н/о +21.9 +18.5 81 +27 +27 душно 1013.6 1009.2
05 23.06 Ю 2 30 км н/о +23.5 +19.4 78 +29 +29 душно 1013.0 1008.6
06 23.06 Ю 2 30 км н/о +25.7 +19.8 70 +31 +31 очень
душно
1013.0 1008.6 +20.6 +27.4
07 23.06 ЮВ 3 30 км н/о +29.3 +19.3 55 +35 +35 очень
душно
1012.7 1008.4
08 23.06 Ю 4 40 км н/о +30.2 +18.4 49 +35 +35 очень
душно
1012.9 1008.6
09 23.06 Ю 3 40 км н/о +32.7 +16.8 39 +36 +36 очень
душно
1013.5 1009.2
10 23.06 З 5 35 км н/о +32.2 +18.2 43 +37 +37 очень
душно
1014.4 1010.2
11 23.06 ЮЗ 4 40 км н/о +30.5 +17.4 45 +34 +34 очень
душно
1014.7 1010.4
12 23.06 ЮЗ 4 40 км н/о +30.6 +17.9 47 +35 +35 очень
душно
1014.7 1010.4
13 23.06 ЮЗ 5 35 км н/о +29.1 +16.2 46 +32 +32 душно 1014.4 1010.0
14 23.06 штиль 0 35 км н/о +30.4 +18.2 48 +35 +35 очень
душно
1013.7 1009.4
15 23.06 ЮЗ 3 35 км н/о +31.2 +19.0 48 +36 +36 очень
душно
1013.1 1008.8
16 23.06 ЮЗ 3 40 км н/о +30.8 +17.4 45 +35 +35 очень
душно
1013.0 1008.7
17 23.06 З 3 21 км н/о +28.7 +19.7 58 +35 +35 очень
душно
1013.6 1009.2
18 23.06 С 2 22 км н/о +25.5 +21.9 81 +33 +33 очень
душно
1013.7 1009.3 +25.3 +33.9
19 23.06 З 2 10 км н/о +25.2 +22.9 87 +33 +33 очень
душно
1013.8 1009.4
20 23.06 С 1 9000 м н/о +24.3 +22.7 91 +32 +32 очень
душно
1014.2 1009.8
21 23.06 З 1 5000 м н/о +23.8 +22.5 92 +31 +31 очень
душно
1014.4 1010.0
22 23.06 штиль 0 9000 м н/о +22.4 +20.9 91 +29 +29 очень
душно
1014.6 1010.2
23 23.06 В 2 16 км н/о +22.4 +19.9 86 +29 +29 очень
душно
1014.5 1010.1
00 24.06 ЮЗ 1 11 км н/о +21.7 +20.2 91 +27 +27 душно 1014.4 1009.9
01 24.06 В 2 11 км н/о +21.5 +20.1 92 +27 +27 душно 1014.2 1009.8
02 24.06 Ю 1 12 км н/о +21.4 +19.8 91 +26 +26 душно 1014.0 1009.6
03 24.06 Ю 1 14 км н/о +20.8 +19.0 89 +26 +26 душно 1013.9 1009.5
04 24.06 ЮВ 1 17 км н/о +21.4 +19.2 87 +26 +26 душно 1014.3 1009.9
05 24.06 Ю 2 18 км н/о +22.6 +19.8 84 +29 +29 очень
душно
1014.6 1010.2
06 24.06 ЮВ 2 21 км н/о +25.0 +19.0 69 +30 +30 душно 1014.4 1010.0 +20.7 +26.2
07 24.06 нст 1 30 км н/о +26.8 +20.1 67 +33 +33 очень
душно
1014.4 1010.1
08 24.06 ЮЗ 2 35 км н/о +27.5 +20.8 67 +34 +34 очень
душно
1014.3 1010.0
09 24.06 З 3 27 км н/о +24.9 +21.5 81 +32 +32 очень
душно
1014.5 1010.2
10 24.06 З 4 30 км н/о +25.6 +21.5 78 +33 +33 очень
душно
1014.3 1009.9
11 24.06 СВ 7 50 км н/о +22.7 +15.2 63 +27 +27 душно 1014.9 1010.5
12 24.06 нст 1 11 км н/о +20.8 +17.6 82 +26 +26 душно 1014.9 1010.4
13 24.06 Ю 1 30 км н/о +22.6 +19.0 80 +28 +28 душно 1014.6 1010.2
14 24.06 З 1 28 км н/о +23.9 +19.4 76 +29 +29 душно 1014.5 1010.1
15 24.06 С 1 35 км н/о +24.6 +19.9 75 +30 +30 очень
душно
1014.6 1010.2
16 24.06 СЗ 2 28 км н/о +24.3 +21.0 82 +31 +31 очень
душно
1014.4 1010.0
17 24.06 СЗ 2 40 км н/о +24.8 +19.8 74 +30 +30 душно 1014.5 1010.1
18 24.06 С 1 35 км н/о +23.3 +20.2 83 +31 +31 очень
душно
1014.5 1010.1 +19.7 +28.9
19 24.06 С 2 20 км н/о +22.2 +19.4 84 +28 +28 душно 1014.6 1010.2
21 24.06 нст 1 12 км н/о +20.1 +18.7 92 +25 +25 комфорт 1015.0 1010.5
22 24.06 СЗ 1 6000 м н/о +19.1 +17.9 93 +22 +22 комфорт 1014.9 1010.4
23 24.06 С 1 8000 м н/о +19.0 +17.9 93 +22 +22 комфорт 1014.7 1010.3
00 25.06 штиль 0 10 км н/о +18.7 +17.6 93 +20 +20 1014.9 1010.5
01 25.06 ЮВ 1 8000 м н/о +18.5 +17.5 94 +20 +20 1014.9 1010.4
02 25.06 ЮВ 1 9000 м н/о +17.9 +16.8 93 +19 +19 1014.6 1010.1
03 25.06 штиль 0 4900 м н/о +17.0 +16.0 94 +17 +17 1014.7 1010.2
04 25.06 штиль 0 9000 м н/о +17.9 +16.8 93 +18 +18 1014.8 1010.3
05 25.06 Ю 1 12 км н/о +20.0 +18.3 90 +24 +24 комфорт 1015.2 1010.8
06 25.06 штиль 0 20 км н/о +23.1 +18.2 74 +29 +29 очень
душно
1015.4 1011.0 +16.8 +23.6
07 25.06 В 1 29 км н/о +24.9 +18.2 66 +29 +29 душно 1015.9 1011.6
08 25.06 нст 1 29 км н/о +27.1 +19.9 65 +33 +33 очень
душно
1015.9 1011.5
09 25.06 З 2 35 км н/о +27.9 +19.2 59 +33 +33 очень
душно
1015.9 1011.6
10 25.06 СЗ 2 45 км н/о +32.5 +19.1 45 +38 +38 очень
душно
1016.0 1011.7
11 25.06 СЗ 2 45 км н/о +33.1 +17.3 39 +37 +37 очень
душно
1015.9 1011.6

 

Местоположение метеостанции Тирана (Албания): широта 41.33 долгота 19.78 высота над уровнем моря 89 м.

В архиве по умолчанию представлена погода в Тиране за последнюю неделю. Архивные данные за месяц целиком и за предыдущие месяцы, начиная с января 2011 года, Вы можете получить, выбрав интересующий диапазон дат из раскрывающегося списка и нажав кнопку "Ввод!".


*Определитесь, кто Вы:
робот инопланетянин человек

Внимание! Время в таблицах - всемирное. Для получения местного времени необходимо прибавить поправку, которая равна 1 ч.

Смотрите также архив погоды в соседних городах и на ближайших метеорологических станциях:

Погода в Дурресе (Албания) (28 км)
Погода в Эльбасане (Албания) (34 км)
Погода в Тиране Лапрака (Албания) (59 км)
Погода в Кучове (Албания) (60 км)
Погода в Пешкопии (Албания) (67 км)
Погода на Лазарополе (Македония) (80 км)
Погода в Шкодре (Албания) (88 км)
Погода в Охрид аэропорту (Македония) (88 км)
Погода в Охриде (Македония) (91 км)
Погода во Влёре (Албания) (99 км)

Пояснения к столбцам:

Ветер - указаны скорость ветра в м/с - средняя за 10 мин, порывы в срок и между сроками (в фигурных скобках) и направление, откуда дует ветер: С - северный, СВ - северо-восточный, В - восточный, ЮВ - юго-восточный, Ю - южный, ЮЗ - юго-западный, З - западный, СЗ - северо-западный.
Видимость - горизонтальная дальность видимости в метрах или километрах. При видимости от 1 до 10 км при отсутствии осадков обычно наблюдается дымка, при ухудшении видимости до 1 км и менее - туман. В сухую погоду видимость может ухудшаться дымом, пылью или мглою.
Явления - указаны атмосферные явления, наблюдавшиеся в срок или в последний час перед сроком; фигурными скобками обозначены явления, наблюдавшиеся между сроками (за 1-3 часа до срока); квадратными скобками обозначены град или гололедные отложения с указанием их диаметра в мм.
Облачность - указаны через наклонную черту общая и нижняя облачность в баллах и высота нижней границы облаков в метрах; квадратными скобками обозначены формы облаков: Ci - перистые, Cs - перисто-слоистые, Cc - перисто-кучевые, Ac - высококучевые, As - высокослоистые, Sc - слоисто-кучевые, Ns - слоисто-дождевые, Cu - кучевые, Cb - кучево-дождевые. Подробнее классификацию облаков см. в Атласе облаков (PDF).
T - Температура воздуха - температура, измеренная на высоте 2 м над землей.
Td - Температура точки росы - температура, при понижении до которой содержащийся в воздухе водяной пар достигнет насыщения.
f - Относительная влажность воздуха - влажноcть воздуха, измеренная на высоте 2 м над землей.
Te - Эффективная температура - температура, которую ощущает одетый по сезону человек в тени. Характеристика душности погоды. При расчете учитывается влияние влажности воздуха и скорости ветра на теплоощущения человека.
Tes - Эффективная температура на солнце - температура, которую ощущает человек, с поправкой на солнечный нагрев. Характеристика знойности погоды. Зависит от высоты солнца над горизонтом, облачности и скорости ветра. Ночью, в пасмурную погоду, а также при ветре 12 м/с и более поправка равна нулю.
P - Атмосферное давление - приведенное к уровню моря атмосферное давление.
Po - Атмосферное давление - измеренное на уровне метеостанции атмосферное давление.
Tmin - Минимальная температура - минимум температуры воздуха на высоте 2 м над землей.
Tmax - Максимальная температура - максимум температуры воздуха на высоте 2 м над землей.
R - Количество осадков - Количество выпавших осадков за период времени, мм. При наведении курсора мыши на число - период времени, за который выпало указанное количество осадков.
R24 - Количество осадков - Количество выпавших осадков за 24 часа, мм.
S - Снежный покров - Высота снежного покрова, см. При наведении курсора мыши на число - состояние снежного покрова и степень покрытия местности в баллах.